Storm Lake, IA

12:02 AM CDT on May 27, 2017 (GMT -0500)
Storm Lake Municipal

Weather History for KSLB - September, 2014

Change the Weather History Date:

Wednesday, September 3, 2014

  Actual Average Record
Temperature  
Mean Temperature 68 °F -  
Max Temperature 80 °F 78 °F 91 °F (2005)
Min Temperature 57 °F 58 °F 48 °F (2006)
Cooling Degree Days 4    
Growing Degree Days 18 (Base 50)    
Moisture  
Dew Point 65 °F    
Average Humidity 95    
Maximum Humidity 100    
Minimum Humidity 4    
Precipitation  
Precipitation 0.00 in - - ()
Sea Level Pressure  
Sea Level Pressure 29.82 in    
Wind  
Wind Speed 11 mph (South)    
Max Wind Speed 23 mph    
Max Gust Speed 34 mph    
Visibility 10 miles    
Events      
Averages and records for this station are not official NWS values.
T = Trace of Precipitation, MM = Missing Value Source: NWS Daily Summary

Daily Weather History Graph

Daily Weather History Graph

Search for Another Location

Airport or City:

Trip Planner

Search our weather history database for the weather conditions in past years. The results will help you decide how hot, cold, wet, or windy it might be!

Date:

Astronomy

Sep. 03, 2014 Rise Set
Actual Time 6:48 AM CDT 7:51 PM CDT
Civil Twilight 6:19 AM CDT 8:20 PM CDT
Nautical Twilight 5:44 AM CDT 8:54 PM CDT
Astronomical Twilight 5:08 AM CDT 9:30 PM CDT
Moon 3:38 PM CDT (9/3) 12:38 AM CDT (9/3)
Length of Visible Light 14h 01m
Length of Day
13h 03m
Waxing Gibbous, 64% of the Moon is Illuminated
Sep 3
Waxing Gibbous
Sep 8
Full
Sep 15
Last Quarter
Sep 24
New
Oct 1
First Quarter

Hourly Weather History & Observations

Time (CDT) Temp. Heat Index Dew Point Humidity Pressure Visibility Wind Dir Wind Speed Gust Speed Precip Events Conditions
12:15 AM 57.2 °F - 57.2 °F 100% 29.95 in 10.0 mi SSE 6.9 mph - N/A   Clear
12:35 AM 59.0 °F - 59.0 °F 100% 29.95 in 10.0 mi SSE 8.1 mph - N/A   Clear
12:55 AM 59.0 °F - 59.0 °F 100% 29.94 in 10.0 mi SSE 6.9 mph - N/A   Clear
1:15 AM 59.0 °F - 59.0 °F 100% 29.93 in 10.0 mi South 8.1 mph - N/A   Scattered Clouds
1:35 AM 59.0 °F - 59.0 °F 100% 29.93 in 10.0 mi SSE 8.1 mph - N/A   Mostly Cloudy
1:55 AM 59.0 °F - 59.0 °F 100% 29.92 in 10.0 mi SSE 6.9 mph - N/A   Scattered Clouds
2:15 AM 59.0 °F - 59.0 °F 100% 29.92 in 10.0 mi SSE 6.9 mph - N/A   Clear
2:35 AM 59.0 °F - 59.0 °F 100% 29.91 in 10.0 mi SSE 9.2 mph - N/A   Clear
2:55 AM 60.8 °F - 60.8 °F 100% 29.91 in 10.0 mi South 10.4 mph - N/A   Partly Cloudy
3:15 AM 59.0 °F - 59.0 °F 100% 29.91 in 10.0 mi South 9.2 mph - N/A   Partly Cloudy
3:35 AM 59.0 °F - 59.0 °F 100% 29.91 in 10.0 mi South 10.4 mph - N/A   Clear
3:55 AM 59.0 °F - 59.0 °F 100% 29.91 in 10.0 mi South 9.2 mph - N/A   Clear
4:15 AM 59.0 °F - 59.0 °F 100% 29.91 in 10.0 mi South 8.1 mph - N/A   Clear
4:35 AM 59.0 °F - 59.0 °F 100% 29.91 in 10.0 mi South 10.4 mph - N/A   Partly Cloudy
4:55 AM 59.0 °F - 59.0 °F 100% 29.90 in 10.0 mi South 10.4 mph - N/A   Partly Cloudy
5:15 AM 59.0 °F - 59.0 °F 100% 29.90 in 10.0 mi South 11.5 mph - N/A   Clear
5:35 AM 60.8 °F - 60.8 °F 100% 29.90 in 10.0 mi South 10.4 mph - N/A   Clear
5:55 AM 60.8 °F - 60.8 °F 100% 29.89 in 10.0 mi South 8.1 mph - N/A   Clear
6:15 AM 60.8 °F - 60.8 °F 100% 29.89 in 10.0 mi South 9.2 mph - N/A   Clear
6:35 AM 60.8 °F - 60.8 °F 100% 29.89 in 10.0 mi SSE 8.1 mph - N/A   Clear
6:55 AM 60.8 °F - 60.8 °F 100% 29.90 in 10.0 mi SE 8.1 mph - N/A   Clear
7:15 AM 59.0 °F - 59.0 °F 100% 29.89 in 10.0 mi SE 6.9 mph - N/A   Partly Cloudy
7:35 AM 60.8 °F - 60.8 °F 100% 29.89 in 10.0 mi SSE 9.2 mph - N/A   Partly Cloudy
7:55 AM 60.8 °F - 60.8 °F 100% 29.88 in 10.0 mi SSE 10.4 mph - N/A   Partly Cloudy
8:15 AM 62.6 °F - 62.6 °F 100% 29.88 in 10.0 mi SSE 11.5 mph - N/A   Clear
8:35 AM 64.4 °F - 64.4 °F 100% 29.87 in 9.0 mi SSE 9.2 mph - N/A   Clear
8:55 AM 66.2 °F - 66.2 °F 100% 29.87 in 9.0 mi South 10.4 mph - N/A   Clear
9:15 AM 69.8 °F - 69.8 °F 100% 29.86 in 10.0 mi South 12.7 mph - N/A   Clear
9:35 AM 71.6 °F - 71.6 °F 100% 29.85 in 10.0 mi South 16.1 mph - N/A   Clear
9:55 AM 71.6 °F - 71.6 °F 100% 29.84 in 10.0 mi South 16.1 mph 24.2 mph N/A   Clear
10:15 AM 73.4 °F - 73.4 °F 100% 29.84 in 10.0 mi South 19.6 mph 25.3 mph N/A   Partly Cloudy
10:35 AM 75.2 °F - 75.2 °F 100% 29.84 in 10.0 mi South 15.0 mph 21.9 mph N/A   Scattered Clouds
10:55 AM 75.2 °F - 75.2 °F 100% 29.83 in 9.0 mi South 19.6 mph 27.6 mph N/A   Partly Cloudy
11:15 AM 75.2 °F - 75.2 °F 100% 29.84 in 10.0 mi SSW 15.0 mph 23.0 mph N/A   Scattered Clouds
11:35 AM 75.2 °F - 75.2 °F 100% 29.84 in 10.0 mi South 16.1 mph 24.2 mph N/A   Mostly Cloudy
11:55 AM 77.0 °F - 77.0 °F 100% 29.82 in 10.0 mi South 16.1 mph 21.9 mph N/A   Mostly Cloudy
12:15 PM 77.0 °F - 77.0 °F 100% 29.82 in 10.0 mi SSW 20.7 mph 26.5 mph N/A   Scattered Clouds
12:35 PM 78.8 °F - 77.0 °F 94% 29.81 in 10.0 mi South 20.7 mph 28.8 mph N/A   Scattered Clouds
12:55 PM 77.0 °F - 77.0 °F 100% 29.80 in 10.0 mi South 16.1 mph 25.3 mph N/A   Mostly Cloudy
1:15 PM 77.0 °F - 77.0 °F 100% 29.80 in 10.0 mi SSW 13.8 mph 24.2 mph N/A   Mostly Cloudy
1:35 PM 78.8 °F - 77.0 °F 94% 29.79 in 10.0 mi South 17.3 mph 25.3 mph N/A   Mostly Cloudy
1:55 PM 78.8 °F - 77.0 °F 94% 29.78 in 9.0 mi South 17.3 mph 29.9 mph N/A   Mostly Cloudy
2:15 PM 78.8 °F - 77.0 °F 94% 29.77 in 10.0 mi SSW 18.4 mph 26.5 mph N/A   Mostly Cloudy
2:35 PM 77.0 °F - 77.0 °F 100% 29.77 in 10.0 mi South 23.0 mph 31.1 mph N/A   Overcast
2:55 PM 77.0 °F - 75.2 °F 94% 29.78 in 10.0 mi SSW 18.4 mph 26.5 mph N/A   Overcast
3:15 PM 77.0 °F - 77.0 °F 100% 29.75 in 10.0 mi South 19.6 mph 25.3 mph N/A   Mostly Cloudy
3:35 PM 77.0 °F - 77.0 °F 100% 29.75 in 10.0 mi South 15.0 mph 27.6 mph N/A   Scattered Clouds
3:55 PM 78.8 °F - 78.8 °F 100% 29.76 in 10.0 mi SSW 15.0 mph 27.6 mph N/A   Partly Cloudy
4:15 PM 80.6 °F 88.1 °F 78.8 °F 94% 29.74 in 10.0 mi SSW 18.4 mph 31.1 mph N/A   Clear
4:35 PM 80.6 °F 88.1 °F 78.8 °F 94% 29.73 in 10.0 mi South 17.3 mph 34.5 mph N/A   Clear
4:55 PM 80.6 °F 88.1 °F 78.8 °F 94% 29.71 in 10.0 mi South 19.6 mph 26.5 mph N/A   Clear
5:15 PM 80.6 °F 89.3 °F 80.6 °F 100% 29.71 in 10.0 mi South 15.0 mph 27.6 mph N/A   Clear
5:35 PM 80.6 °F 89.3 °F 80.6 °F 100% 29.73 in 10.0 mi South 21.9 mph 32.2 mph N/A   Clear
5:55 PM 80.6 °F 89.3 °F 80.6 °F 100% 29.71 in 9.0 mi South 13.8 mph 26.5 mph N/A   Clear
6:15 PM 78.8 °F - 78.8 °F 100% 29.72 in 10.0 mi South 16.1 mph 21.9 mph N/A   Clear
6:35 PM 78.8 °F - 77.0 °F 94% 29.70 in 10.0 mi South 12.7 mph 19.6 mph N/A   Clear
6:55 PM 77.0 °F - 73.4 °F 89% 29.72 in 10.0 mi South 12.7 mph - N/A   Clear
7:15 PM 77.0 °F - 75.2 °F 94% 29.74 in 10.0 mi South 8.1 mph - N/A   Clear
7:35 PM 75.2 °F - 75.2 °F 100% 29.75 in 10.0 mi South 8.1 mph - N/A   Clear
7:55 PM 73.4 °F - 73.4 °F 100% 29.75 in 10.0 mi South 10.4 mph - N/A   Clear
8:15 PM 71.6 °F - 71.6 °F 100% 29.74 in 10.0 mi South 8.1 mph - N/A   Clear
8:35 PM 69.8 °F - 69.8 °F 100% 29.74 in 10.0 mi SSE 8.1 mph - N/A   Clear
8:55 PM 71.6 °F - 71.6 °F 100% 29.74 in 10.0 mi SSE 9.2 mph - N/A   Clear
9:15 PM 71.6 °F - 71.6 °F 100% 29.75 in 10.0 mi SSE 9.2 mph - N/A   Clear
9:35 PM 69.8 °F - 69.8 °F 100% 29.75 in 10.0 mi SSE 9.2 mph - N/A   Clear
9:55 PM 69.8 °F - 69.8 °F 100% 29.75 in 10.0 mi SSE 9.2 mph - N/A   Clear
10:15 PM 69.8 °F - 69.8 °F 100% 29.74 in 10.0 mi SSE 9.2 mph - N/A   Clear
10:55 PM 69.8 °F - 69.8 °F 100% 29.74 in 10.0 mi SSE 9.2 mph - N/A   Clear
11:15 PM 71.6 °F - -32.8 °F 4% 29.73 in 10.0 mi SSE 10.4 mph - N/A   Clear
11:35 PM 71.6 °F - -36.4 °F 4% 29.73 in 10.0 mi SSE 9.2 mph - N/A   Clear
11:55 PM 71.6 °F - -36.4 °F 4% 29.72 in 10.0 mi South 10.4 mph - N/A   Clear